Regional Weather Roundup
Issued by NWS Midland/Odessa, TX

Skip options and go directly to product.
Home | Oldest Version | Previous Version | Current Version | All | Text Only | Save Text | Print | Product List | Glossary Off

Skip product version selection by date and time.   

886
ASUS44 KMAF 230310
RWRMAF
MIDLAND AREA WEATHER ROUNDUP
NATIONAL WEATHER SERVICE MIDLAND TX
1000 PM CDT WED OCT 22 2014

...IN SOUTHWEST TEXAS AND SOUTHEAST NEW MEXICO...

CITY           SKY/WX    TMP DP  RH WIND       PRES   REMARKS
ALPINE         PTCLDY    61  58  88 CALM      30.24R
ANDREWS        FAIR      60  54  78 SE7       30.14R
ARTESIA        NOT AVBL
BIG SPRING     CLOUDY    64  54  70 SE12      30.16R
CARLSBAD       CLEAR     63  59  87 S8        30.10R
DRYDEN           N/A     60  57  89 SE6       30.11F
FORT STOCKTON  MOCLDY    63  59  87 S21       30.10S
GUAD PASS      CLEAR     59  56  89 NE20      30.22R
HOBBS          CLEAR     59  59 100 SE5       30.14S
MARFA          MOCLDY    61  57  88 SE5       30.22S
MIDLAND AIRPK  PTCLDY    63  55  75 SE8       30.14R
MIDLAND INTL   PTCLDY    62  53  72 SE12      30.12S
ODESSA         PTCLDY    62  50  64 S14       30.13S
PECOS          MOCLDY    65  60  85 E7        30.09R
PRESIDIO       FAIR      70  60  70 NE5       30.09R
SEMINOLE       CLEAR     60  58  96 SE7       30.15R
SNYDER         PTCLDY    61  57  87 S5        30.13S
WINK           CLEAR     64  57  78 SE12      30.09R
$$
...OTHER STATIONS IN TEXAS...

CITY           SKY/WX    TMP DP  RH WIND       PRES   REMARKS
ABILENE        PTCLDY    64  57  78 S6        30.13R
AMARILLO       CLOUDY    61  59  93 S17       30.12R
AUSTIN         CLOUDY    68  61  78 CALM      30.09R
BROWNSVILLE    CLEAR     74  68  81 NE5       30.02R
CORPUS CHRISTI MOCLDY    74  65  73 E9        30.05R
DALLAS FTW     CLOUDY    72  55  55 E8        30.11R
DEL RIO        LGT RAIN  65  63  93 W8        30.10R
EL PASO        CLEAR     66  55  67 CALM      30.11R
HOUSTON INT    PTCLDY    66  59  78 N3        30.09R
LUBBOCK        CLOUDY    61  59  93 S13       30.14R FOG
SAN ANGELO     MOCLDY    63  56  78 SW7       30.12S
SAN ANTONIO    CLOUDY    75  57  53 E6        30.08R
WACO           CLOUDY    69  58  67 E5        30.11R
WICHITA FALLS  NOT AVBL
$$
...OTHER LOCATIONS IN NEW MEXICO...

CITY           SKY/WX    TMP DP  RH WIND       PRES   REMARKS
ALAMAGORDO     NOT AVBL
ALBUQUERQUE    PTCLDY    61  41  47 SE6       30.17R
CANNON AFB     CLEAR     58  53  85 SE6       30.14R
CLOVIS         CLEAR     57  54  88 S9        30.16R
HOLLOMAN AFB   CLEAR     63  52  66 SE5       30.12R
ROSWELL        CLEAR     61  58  90 S7        30.10R
RUIDOSO        CLEAR     55  45  67 S3        30.27R
SANTA FE         N/A     54  38  54 NE5       30.21R
TRUTH OR CONSE CLEAR     64  49  57 SW3       30.15R
TUCUMCARI      CLEAR     63  53  70 S8        30.07R
$$

USA.gov is the U.S. government's official web portal to all federal, state and local government web resources and services.